Milton, FL

3:19 PM CDT on March 24, 2017 (GMT -0500)
Whiting Field Naval Air Station (South)

Weather History for KNDZ - October, 2011

Change the Weather History Date:

Wednesday, October 19, 2011

  Actual Average (KNSE) Record (KNSE)
Temperature  
Mean Temperature 54 °F -  
Max Temperature 64 °F 76 °F 88 °F (2006)
Min Temperature 46 °F 56 °F 41 °F (1996)
Degree Days  
Heating Degree Days 10    
Growing Degree Days 4 (Base 50)    
Moisture  
Dew Point 40 °F    
Average Humidity 58    
Maximum Humidity 81    
Minimum Humidity 37    
Precipitation  
Precipitation 0.00 in - - ()
Sea Level Pressure  
Sea Level Pressure 29.74 in    
Wind  
Wind Speed 16 mph (NW)    
Max Wind Speed 24 mph    
Max Gust Speed 31 mph    
Visibility 10 miles    
Events      
Averages and records for this station are not official NWS values.
T = Trace of Precipitation, MM = Missing Value Source: NWS Daily Summary

Daily Weather History Graph

Daily Weather History Graph

Search for Another Location

Airport or City:

Trip Planner

Search our weather history database for the weather conditions in past years. The results will help you decide how hot, cold, wet, or windy it might be!

Date:

Astronomy

Oct. 19, 2011 Rise Set
Actual Time 6:53 AM CDT 6:12 PM CDT
Civil Twilight 6:28 AM CDT 6:36 PM CDT
Nautical Twilight 6:00 AM CDT 7:05 PM CDT
Astronomical Twilight 5:32 AM CDT 7:32 PM CDT
Moon No Moon Rise 1:12 PM CDT (10/19)
Length of Visible Light 12h 08m
Length of Day
11h 19m
Waning Gibbous, 54% of the Moon is Illuminated
Oct 19
Waning Gibbous
Oct 19
Last Quarter
Oct 26
New
Nov 2
First Quarter
Nov 10
Full

Hourly Weather History & Observations

Time (CDT) Temp. Windchill Dew Point Humidity Pressure Visibility Wind Dir Wind Speed Gust Speed Precip Events Conditions
12:56 AM 57.9 °F - 52.0 °F 81% 29.58 in 10.0 mi NW 21.9 mph 31.1 mph N/A   Overcast
1:56 AM 55.9 °F - 50.0 °F 80% 29.60 in 10.0 mi NW 19.6 mph 26.5 mph N/A   Overcast
2:56 AM 54.0 °F - 46.0 °F 75% 29.60 in 10.0 mi NNW 24.2 mph 31.1 mph N/A   Overcast
3:56 AM 54.0 °F - 44.1 °F 69% 29.62 in 10.0 mi NNW 18.4 mph 26.5 mph N/A   Overcast
4:56 AM 53.1 °F - 44.1 °F 71% 29.63 in 10.0 mi NNW 18.4 mph 24.2 mph N/A   Overcast
5:43 AM 51.8 °F - 42.8 °F 71% 29.69 in 10.0 mi NW 21.9 mph 29.9 mph N/A   Scattered Clouds
5:56 AM 52.0 °F - 42.1 °F 69% 29.66 in 10.0 mi NNW 16.1 mph 28.8 mph N/A   Clear
6:56 AM 48.9 °F - 41.0 °F 74% 29.68 in 10.0 mi NW 10.4 mph - N/A   Clear
7:56 AM 50.0 °F - 41.0 °F 71% 29.70 in 10.0 mi NW 10.4 mph 17.3 mph N/A   Clear
8:56 AM 53.1 °F - 42.1 °F 66% 29.73 in 10.0 mi NNW 12.7 mph 18.4 mph N/A   Clear
9:56 AM 57.0 °F - 41.0 °F 55% 29.73 in 10.0 mi NW 16.1 mph 24.2 mph N/A   Clear
10:56 AM 59.0 °F - 39.0 °F 48% 29.73 in 10.0 mi NW 17.3 mph 25.3 mph N/A   Clear
11:56 AM 61.0 °F - 37.9 °F 42% 29.72 in 10.0 mi WNW 15.0 mph 24.2 mph N/A   Clear
12:56 PM 63.0 °F - 37.0 °F 38% 29.71 in 10.0 mi NW 18.4 mph 28.8 mph N/A   Clear
1:56 PM 63.0 °F - 36.0 °F 37% 29.70 in 10.0 mi WNW 13.8 mph 27.6 mph N/A   Partly Cloudy
2:56 PM 62.1 °F - 36.0 °F 38% 29.70 in 10.0 mi WNW 15.0 mph 25.3 mph N/A   Scattered Clouds
3:56 PM 62.1 °F - 37.0 °F 39% 29.73 in 10.0 mi WNW 13.8 mph 23.0 mph N/A   Mostly Cloudy
4:56 PM 59.0 °F - 36.0 °F 42% 29.76 in 10.0 mi NW 11.5 mph 20.7 mph N/A   Partly Cloudy
5:56 PM 55.9 °F - 36.0 °F 47% 29.81 in 10.0 mi NW 6.9 mph - N/A   Mostly Cloudy
6:56 PM 55.0 °F - 34.0 °F 45% 29.86 in 10.0 mi NW 10.4 mph 18.4 mph N/A   Overcast
7:56 PM 53.1 °F - 33.1 °F 47% 29.88 in 10.0 mi NW 6.9 mph - N/A   Mostly Cloudy
8:56 PM 52.0 °F - 35.1 °F 53% 29.91 in 10.0 mi NW 4.6 mph - N/A   Overcast
9:56 PM 50.0 °F - 36.0 °F 59% 29.94 in 10.0 mi Variable 3.5 mph - N/A   Clear
10:56 PM 46.9 °F - 36.0 °F 66% 29.96 in 10.0 mi WNW 6.9 mph - N/A   Clear
11:56 PM 46.0 °F 44.8 °F 36.0 °F 68% 29.96 in 10.0 mi WNW 3.5 mph - N/A   Clear